[[{"header":{"parameterUnit":"m.s-1","parameterCategory":1,"la1":30.2991,"la2":30.254,"lo1":-89.0895,"lo2":-89.0444,"dy":0.0017,"dx":0.0017,"nx":28,"ny":28,"refTime":"2024-08-27T09:00:00:Z","depth":0,"parameterNumber":2,"parameterNumberName":"U-component_of_WINDS"},"data":[0,0,0,0,0,0,0,0,0,0,0,0,0,0,0,0,0,0,0,0,0,0,0,0,0,0,0,0,0,0,0,0,0,0,0,0,0,0,0,0,0,0,0,0,0,0,0,0,0,0,0,0,0,0,0,0,0,0,-3.8515,-3.8517,0,-3.8653,-3.8655,-3.8656,-3.8633,-3.863,-3.8628,-3.8625,-3.8772,-3.8778,-3.8784,0,0,0,0,0,0,0,0,0,0,0,0,0,-3.8239,-3.8244,-3.8515,-3.8517,-3.8519,-3.8653,-3.8655,-3.8657,-3.8633,-3.863,-3.8627,-3.8624,-3.877,-3.8777,-3.8784,0,0,0,0,0,0,0,0,0,0,0,0,0,-3.8366,-3.8246,-3.8515,-3.8523,-3.8525,-3.8653,-3.8655,-3.8657,-3.8634,-3.863,-3.8626,-3.8623,-3.8767,-3.8776,-3.8785,-3.8915,0,0,-3.8813,-3.8817,0,0,0,0,0,0,0,0,-3.8359,-3.8377,-3.852,-3.8523,-3.8525,-3.8622,-3.8611,-3.8744,-3.8635,-3.8593,-3.8625,-3.8621,-3.8725,-3.8737,-3.8771,-3.8922,-3.8928,-3.8814,-3.882,-3.8824,-3.8826,0,0,0,0,0,0,0,-3.835,-3.8371,-3.857,-3.8522,-3.8525,-3.8522,-3.8536,-3.8636,-3.8678,-3.8596,-3.8594,-3.8611,-3.8726,-3.8763,-3.8775,-3.893,-3.8814,-3.8822,-3.8828,-3.8831,-3.9198,-3.9202,0,0,0,0,0,0,-3.8338,-3.8363,-3.8566,-3.8574,-3.8431,-3.853,-3.8546,-3.8595,-3.8676,-3.8685,-3.8614,-3.8609,-3.8749,-3.8764,-3.878,-3.8938,-3.8824,-3.8832,-3.8838,-3.9194,-3.9199,-3.9204,0,0,0,0,0,0,-3.8332,-3.8356,-3.856,-3.8468,-3.8494,-3.8539,-3.8594,-3.8599,-3.8636,-3.869,-3.8698,-3.8643,-3.8746,-3.8767,-3.8882,-3.8943,-3.8837,-3.8845,-3.9189,-3.9196,-3.9201,-3.9256,0,0,0,0,0,0,-3.8325,-3.8354,-3.8402,-3.847,-3.8499,-3.8657,-3.8597,-3.8605,-3.8651,-3.8647,-3.872,-3.8728,-3.8745,-3.8868,-3.8891,-3.8954,-3.8852,-3.9184,-3.9192,-3.9199,-3.9248,-3.9263,-3.9275,0,0,0,0,0,-3.8315,-3.8412,-3.8404,-3.8429,-3.8559,-3.8661,-3.8678,-3.8694,-3.8656,-3.8706,-3.8742,-3.8726,-3.8933,-3.888,-3.8906,-3.8972,-3.918,-3.919,-3.9199,-3.9242,-3.926,-3.9275,0,0,0,0,0,0,-3.8351,-3.8421,-3.8413,-3.8535,-3.8592,-3.8656,-3.8719,-3.8711,-3.8781,-3.8774,-3.8793,-3.881,-3.8927,-3.8962,-3.8901,-3.9104,-3.9052,-3.9067,-3.9076,-3.9093,-3.9107,-3.9095,-3.886,0,0,0,0,0,-3.8373,-3.8448,-3.8506,-3.8608,-3.8637,-3.8674,-3.8718,-3.8726,-3.8787,-3.8811,-3.8855,-3.8916,-3.8995,-3.9047,-3.9123,-3.9255,-3.9272,-3.9314,-3.9327,-3.9338,-3.935,-3.9425,-3.9445,-3.9235,-3.9235,-3.9235,0,0,-3.8419,-3.8467,-3.8513,-3.8617,-3.8661,-3.8741,-3.8694,-3.8779,-3.8839,-3.8825,-3.8935,-3.8971,-3.9041,-3.9165,-3.9223,-3.9198,-3.9412,-3.935,-3.9358,-3.9364,-3.9437,-3.9456,-3.9474,-3.9241,-3.924,-3.9239,0,0,-3.8544,-3.8587,-3.8677,-3.8724,-3.8793,-3.8818,-3.884,-3.8907,-3.8929,-3.9041,-3.9033,-3.9106,-3.9241,-3.9292,-3.9336,-3.9486,-3.9475,-3.951,-3.9579,-3.9652,-3.9669,-3.9683,-3.9737,-3.9756,-3.9523,-3.9523,-3.9523,0,-3.8592,-3.8709,-3.8725,-3.8812,-3.8859,-3.885,-3.8944,-3.8989,-3.908,-3.9114,-3.9085,-3.9257,-3.9304,-3.9441,-3.9478,-3.9514,-3.9541,-3.95,-3.9665,-3.968,-3.9694,-3.9745,-3.9766,-3.9527,-3.9526,-3.9526,-3.9526,0,-3.8767,-3.8849,-3.8914,-3.9001,-3.9056,-3.9146,-3.9178,-3.9233,-3.9238,-3.9266,-3.9382,-3.9439,-3.9526,-3.9561,-3.9566,-3.9701,-3.9683,-3.966,-3.9607,-3.9717,-3.9766,-3.9786,-3.9532,-3.9531,-3.953,-3.9529,0,0,-3.8913,-3.9011,-3.9034,-3.9075,-3.9153,-3.9218,-3.931,-3.9395,-3.9442,-3.9507,-3.9586,-3.9703,-3.9683,-3.9733,-3.9745,-3.9809,-3.9926,-3.9778,-3.978,-3.9803,-4.0079,-4.0094,-4.0117,-3.9921,-3.9924,-3.9927,-4.0073,0,-3.9044,-3.9202,-3.9222,-3.9364,-3.9441,-3.9437,-3.9518,-3.9576,-3.9607,-3.968,-3.9715,-3.9797,-3.9764,-3.9795,-3.9858,-3.9898,-3.9981,-3.9888,-3.9995,-3.9998,-3.9975,-4.0142,-4.0158,-4.0292,-4.0092,-4.0095,-4.0098,0,-3.9216,-3.9286,-3.9435,-3.9506,-3.9539,-3.961,-3.9692,-3.9761,-3.9829,-3.9847,-3.9905,-3.991,-4.0009,-3.9955,-4.0092,-4.0028,-4.0074,-4.0101,-4.0107,-4.0115,-4.0053,-4.0155,-4.0336,-4.0355,-4.0128,-4.0126,-4.0123,0,-3.9307,-3.9439,-3.9546,-3.9581,-3.9666,-3.9717,-3.9755,-3.9819,-3.9871,-3.9944,-3.9978,-4.0062,-4.0108,-4.0174,-4.0203,-4.0161,-4.034,-4.0287,-4.0358,-4.0358,-4.0393,-4.039,-4.0583,-4.0426,-4.0426,-4.0426,-4.0425,0,-3.945,-3.9542,-3.9588,-3.9653,-3.9758,-3.9782,-3.9885,-3.9922,-3.998,-4.0055,-4.0059,-4.013,-4.0165,-4.0242,-4.0266,-4.0377,-4.0398,-4.0417,-4.0422,-4.0415,-4.0413,-4.0444,-4.0435,-4.0431,-4.043,-4.0429,-4.0428,0,-3.9568,-3.9602,-3.9718,-3.9791,-3.9811,-3.9885,-3.9948,-4.0013,-4.0045,-4.014,-4.0164,-4.0215,-4.0307,-4.0344,-4.0456,-4.0473,-4.06,-4.0599,-4.0576,-4.0577,-4.0646,-4.0638,-4.0863,-4.0895,-4.0719,-4.072,-4.0722,0,-3.9655,-3.9726,-3.9806,-3.9856,-3.9895,-3.9976,-4.0028,-4.0057,-4.0112,-4.0198,-4.0254,-4.0345,-4.0419,-4.0567,-4.0615,-4.0703,-4.0702,-4.0776,-4.0715,-4.0708,-4.0703,-4.0697,-4.0705,-4.0786,-4.0787,-4.0789,-4.079,0,-3.9807,-3.9822,-3.9896,-3.9979,-4.0041,-4.0108,-4.0172,-4.0214,-4.0253,-4.0316,-4.0409,-4.0467,-4.0582,-4.0674,-4.0764,-4.0807,-4.0806,-4.0809,-4.083,-4.0823,-4.0807,-4.0816,-4.0605,-4.0803,-4.0802,-4.0801,-4.08,-4.08,-3.9912,-3.9975,-4.0042,-4.0126,-4.0179,-4.024,-4.0305,-4.0346,-4.0424,-4.0519,-4.0533,-4.0633,-4.0704,-4.0826,-4.0873,-4.0954,-4.0935,-4.0965,-4.0973,-4.0979,-4.0983,-4.0796,-4.0971,-4.097,-4.097,-4.097,-4.097,0,-4.0064,-4.0108,-4.0185,-4.0275,-4.0343,-4.0336,-4.0409,-4.0466,-4.0554,-4.0619,-4.0693,-4.0802,-4.0892,-4.095,-4.1041,-4.1095,-4.1097,-4.1118,-4.1113,-4.1124,-4.0995,-4.0967,-4.1115,-4.1115,-4.1115,-4.1115,-4.1115,-4.1115,-4.015,-4.0257,-4.0281,-4.0415,-4.0459,-4.0556,-4.0598,-4.0657,-4.0709,-4.083,-4.0904,-4.0941,-4.1005,-4.1102,-4.1186,-4.1201,-4.1234,-4.1256,-4.1269,-4.1148,-4.1132,-4.1118,-4.1092,-4.1263,-4.1263,-4.1391,-4.1392,-4.1393]},{"header":{"parameterUnit":"m.s-1","parameterCategory":1,"la1":30.2991,"la2":30.254,"lo1":-89.0895,"lo2":-89.0444,"dy":0.0017,"dx":0.0017,"nx":28,"ny":28,"refTime":"2024-08-27T09:00:00:Z","depth":0,"parameterNumber":3,"parameterNumberName":"V-component_of_WINDS"},"data":[0,0,0,0,0,0,0,0,0,0,0,0,0,0,0,0,0,0,0,0,0,0,0,0,0,0,0,0,0,0,0,0,0,0,0,0,0,0,0,0,0,0,0,0,0,0,0,0,0,0,0,0,0,0,0,0,0,0,3.6345,3.6346,0,3.6394,3.6394,3.6395,3.6478,3.648,3.6481,3.6483,3.6527,3.6526,3.6526,0,0,0,0,0,0,0,0,0,0,0,0,0,3.632,3.632,3.6345,3.6346,3.6347,3.6394,3.6394,3.6395,3.6478,3.648,3.6482,3.6484,3.6527,3.6526,3.6526,0,0,0,0,0,0,0,0,0,0,0,0,0,3.6346,3.632,3.6345,3.6394,3.6399,3.6394,3.6394,3.6395,3.6478,3.648,3.6482,3.6485,3.6527,3.6526,3.6526,3.6475,0,0,3.6524,3.6524,0,0,0,0,0,0,0,0,3.6344,3.6347,3.6386,3.639,3.6396,3.6433,3.6402,3.6422,3.6477,3.6447,3.6483,3.6486,3.6493,3.6495,3.6499,3.6478,3.6479,3.6524,3.6524,3.6524,3.6524,0,0,0,0,0,0,0,3.6342,3.6345,3.6364,3.6386,3.6392,3.6412,3.6418,3.6406,3.6456,3.645,3.6456,3.6461,3.6496,3.6499,3.6501,3.648,3.6524,3.6524,3.6524,3.6523,3.6419,3.6417,0,0,0,0,0,0,3.6334,3.6343,3.6363,3.6366,3.6376,3.641,3.6417,3.6418,3.6456,3.6465,3.6459,3.6465,3.6499,3.6501,3.6503,3.6445,3.6524,3.6523,3.6523,3.6422,3.6419,3.6416,0,0,0,0,0,0,3.6333,3.6335,3.6361,3.6356,3.6361,3.6408,3.6409,3.6418,3.6421,3.6463,3.6472,3.6454,3.6501,3.6503,3.6482,3.6448,3.6523,3.6523,3.6425,3.6421,3.6417,3.633,0,0,0,0,0,0,3.6332,3.6334,3.6316,3.6355,3.6361,3.634,3.6407,3.6417,3.6421,3.6429,3.646,3.6468,3.6503,3.6482,3.6481,3.6449,3.6522,3.6428,3.6423,3.6419,3.6336,3.6324,3.6314,0,0,0,0,0,3.6331,3.6289,3.6315,3.6317,3.634,3.6338,3.6341,3.6384,3.6418,3.64,3.6427,3.6467,3.6453,3.6479,3.6479,3.6446,3.643,3.6424,3.6419,3.6341,3.6326,3.6314,0,0,0,0,0,0,3.6242,3.6295,3.6324,3.6294,3.6311,3.6352,3.633,3.6367,3.6373,3.638,3.6432,3.6438,3.641,3.6426,3.6455,3.6399,3.6448,3.6442,3.6389,3.6375,3.6364,3.6359,3.6522,0,0,0,0,0,3.622,3.6216,3.6261,3.623,3.6237,3.6282,3.6283,3.6315,3.6334,3.6341,3.6367,3.6383,3.6382,3.638,3.6381,3.634,3.6347,3.6317,3.6306,3.6296,3.6289,3.6268,3.6255,3.6398,3.6398,3.6398,0,0,3.6171,3.62,3.6194,3.6213,3.623,3.6223,3.6288,3.6277,3.6272,3.6339,3.6321,3.634,3.6361,3.633,3.6317,3.6342,3.6252,3.6289,3.6281,3.628,3.6261,3.6247,3.6235,3.6394,3.6395,3.6395,0,0,3.608,3.6102,3.6078,3.6095,3.6121,3.6152,3.6146,3.6182,3.6198,3.6182,3.6232,3.6226,3.6223,3.6236,3.6242,3.6158,3.6194,3.6157,3.6096,3.6074,3.6063,3.6053,3.6021,3.6009,3.6151,3.6151,3.6151,0,3.6016,3.6009,3.606,3.6048,3.6054,3.6117,3.6092,3.6106,3.613,3.6132,3.6161,3.616,3.6178,3.615,3.613,3.6134,3.6127,3.6152,3.6061,3.6052,3.6043,3.6013,3.6001,3.6146,3.6146,3.6147,3.6147,0,3.5929,3.5924,3.5901,3.5925,3.5929,3.591,3.5957,3.5955,3.5987,3.6014,3.5996,3.6021,3.6028,3.6025,3.6055,3.6001,3.6016,3.6052,3.6101,3.6024,3.5996,3.5985,3.6139,3.6141,3.6142,3.6143,0,0,3.5779,3.5835,3.5825,3.5837,3.5872,3.5868,3.5852,3.5861,3.5857,3.5873,3.5859,3.5857,3.5892,3.5898,3.5931,3.5913,3.5842,3.5952,3.5953,3.5928,3.5782,3.5752,3.5738,3.5868,3.5866,3.5865,3.5779,0,3.5693,3.567,3.5716,3.5681,3.5676,3.5738,3.5724,3.5742,3.5768,3.5766,3.5794,3.5791,3.5838,3.5842,3.5827,3.5854,3.5813,3.5861,3.5853,3.5852,3.5843,3.5724,3.5692,3.561,3.5769,3.5767,3.5766,0,3.5588,3.5601,3.5566,3.5604,3.5603,3.559,3.5603,3.5601,3.5624,3.5644,3.5652,3.5692,3.5677,3.5728,3.5707,3.5739,3.5739,3.5752,3.575,3.5748,3.5802,3.5716,3.5585,3.5571,3.575,3.5751,3.5752,0,3.548,3.5488,3.5469,3.5477,3.5521,3.551,3.5528,3.5553,3.5556,3.5567,3.5569,3.5578,3.5581,3.5586,3.5626,3.566,3.56,3.5654,3.5614,3.5612,3.5596,3.5595,3.5459,3.56,3.56,3.5601,3.5601,0,3.5377,3.5352,3.5421,3.5408,3.5382,3.5436,3.5408,3.5432,3.5454,3.5446,3.55,3.5491,3.5546,3.5542,3.5574,3.5551,3.5553,3.5567,3.5575,3.556,3.5558,3.5558,3.5564,3.5597,3.5598,3.5599,3.5599,0,3.525,3.5295,3.5277,3.5322,3.5332,3.5311,3.5348,3.5337,3.5368,3.5357,3.5357,3.5404,3.5402,3.5444,3.5451,3.5472,3.5434,3.5454,3.5426,3.5431,3.5388,3.5391,3.5245,3.5228,3.5382,3.538,3.5379,0,3.518,3.5163,3.5207,3.5206,3.5222,3.522,3.5224,3.5277,3.5279,3.5304,3.529,3.5293,3.5299,3.5293,3.5326,3.5331,3.535,3.5299,3.5351,3.5336,3.5346,3.5345,3.5343,3.5286,3.5285,3.5283,3.5282,0,3.505,3.5074,3.5079,3.5092,3.5096,3.5108,3.5123,3.5119,3.5177,3.5176,3.5176,3.5181,3.5189,3.5191,3.5202,3.5219,3.5258,3.5266,3.5256,3.524,3.5224,3.5229,3.5394,3.5268,3.5269,3.527,3.5271,3.5272,3.4948,3.4936,3.4965,3.4969,3.4987,3.5,3.4992,3.5023,3.5025,3.5037,3.5068,3.5062,3.5086,3.5106,3.5119,3.5115,3.514,3.5126,3.5122,3.5118,3.5108,3.5227,3.5117,3.5118,3.5118,3.5118,3.5119,0,3.4819,3.4842,3.4845,3.4866,3.4869,3.491,3.493,3.4928,3.4924,3.4944,3.4949,3.4949,3.4952,3.4986,3.4992,3.4982,3.5,3.4982,3.4981,3.4984,3.5087,3.5093,3.4967,3.4967,3.4967,3.4967,3.4967,3.4967,3.4752,3.4733,3.476,3.4751,3.4773,3.477,3.4778,3.479,3.4806,3.4805,3.4808,3.4832,3.4857,3.4866,3.4869,3.4879,3.4878,3.4852,3.4868,3.4962,3.4977,3.4991,3.4997,3.4852,3.4852,3.4765,3.4764,3.4764]}]]